Location: Aulnoy
(48.8410°N, 3.0967°E)
Time: 00:54:20
(UTC+00:00)

Envisat - Pass Details

Date: 28 February 2024
Orbit: 762 x 764 km, 98.3° (Epoch: 12 April)

Event Time Altitude Azimuth Distance (km) Brightness Sun altitude
Rises 04:55:16 0° 2° (N) 3,243 6.4 -16.8°
Reaches altitude 10° 04:58:12 10° 345° (NNW) 2,311 5.4 -16.3°
Maximum altitude 05:01:38 19° 303° (WNW) 1,784 4.5 -15.8°
Enters shadow 05:01:47 19° 300° (WNW) 1,785 4.4 -15.7°
